foto1
foto1
foto1
foto1
foto1

TAF LFBZ

TAF LFBZ 251100Z 2512/2612 20004KT CAVOK BECMG 2512/2514 30010KT TEMPO 2512/2514 BKN027 BECMG 2519/2521 VRB02KT PROB40 TEMPO 2522/2524 2000 BR TEMPO 2600/2608 BKN025

Accès Membres

Bienvenue sur le site de l'aéroclub Dassault Bréguet Biarritz.

L'aéroclub Dassault Breguet Biarritz est installé sur l'aéroport de Biarritz-Parme (LFBZ). Il a pour objectif de permettre à ses membres de découvrir le vol à moteur.

Vous trouverez sur ce site toutes les informations afin de découvrir notre activité. 

Les membres pourront se connecter pour accéder à certains éléments permettant de préparer un vol.

Bonne visite.

Plan d'accès:

 Logo Aéroclub

Réserver un avion

Pour réserver un avion cliquer sur le logo Openflyers

logo openflyers